Terug naar catalogus

START 1 DEB

ActiefLEO
NORAD 25284·DEBRIS·🇷🇺 Russia

Gelanceerd Mar 25, 1993 vanaf Plesetsk Cosmodrome

Loading…

Volgende Passages (komende 24 uur)

TLE

VersSource: Space-Track

Epoch: Sep 14, 2026, 03:57 UTC

1 25284U 93014F   26257.16469633  .00000254  00000-0  89840-4 0  9992
2 25284  75.7615 142.3325 0178483 203.5612 313.6320 14.29009903481798

Volg START 1 DEB in realtime met AllMySat

Download on the App Store